Location: The Saddle
(36.8333°N, 80.3417°W)
Time: 08:41:04
(UTC-05:00)

Vanguard 2 Rocket - Pass Details

Date: 16 December 2023
Orbit: 555 x 3309 km, 32.9° (Epoch: 02 March)

Event Time Altitude Azimuth Distance (km) Brightness Sun altitude
Rises 12:04:52 0° 246° (WSW) 4,479 10.7 29.8°
Reaches altitude 10° 12:07:21 10° 243° (WSW) 3,787 10.5 29.8°
Maximum altitude 12:17:53 68° 163° (SSE) 2,435 10.0 29.8°
Drops below altitude 10° 12:35:41 10° 86° (E) 6,053 11.1 29.7°
Sets 12:40:52 0° 85° (E) 7,232 11.4 29.6°
